Location: Tel Aviv
(32.0670°N, 34.7670°E)
Time: 13:09:52
(UTC+02:00)

Transit 4A - All Passes

Search period start: 19 January 2022 00:00
Search period end: 29 January 2022 00:00
Orbit: 864 x 981 km, 66.8° (Epoch: 18 January)

Date Brightness Start Highest point End Pass type
(mag) Time Alt. Az. Time Alt. Az. Time Alt. Az.
19 Jan - 07:58:58 10° SSW 08:04:53 85° WNW 08:11:03 10° NNE daylight
19 Jan - 09:49:42 10° WNW 09:52:10 12° NW 09:54:38 10° NNW daylight
19 Jan - 17:06:44 10° NNW 17:12:51 45° ENE 17:18:54 10° SE daylight
19 Jan - 18:53:47 10° NW 18:58:52 25° WSW 19:03:56 10° SSW visible
20 Jan - 06:24:39 10° SE 06:28:27 18° ESE 06:32:19 10° ENE daylight
20 Jan - 08:08:24 10° SW 08:14:12 55° WNW 08:20:14 10° NNE daylight
20 Jan - 15:33:30 10° NE 15:34:42 11° NE 15:35:56 10° ENE daylight
20 Jan - 17:15:50 10° NNW 17:22:13 68° ENE 17:28:33 10° SE visible
20 Jan - 19:04:17 10° WNW 19:07:55 16° WSW 19:11:31 10° SW visible
21 Jan - 06:32:31 10° SSE 06:37:29 29° ESE 06:42:35 10° NE daylight
21 Jan - 08:18:10 10° SW 08:23:36 36° WNW 08:29:14 10° N daylight
21 Jan - 15:40:39 10° NNE 15:44:27 16° NE 15:48:14 10° E daylight
21 Jan - 17:25:05 10° NNW 17:31:30 81° WSW 17:37:52 10° SSE visible
22 Jan - 06:40:59 10° S 06:46:35 45° ESE 06:52:22 10° NE daylight
22 Jan - 08:28:20 10° WSW 08:33:07 24° NW 08:38:02 10° N daylight
22 Jan - 15:49:03 10° N 15:54:04 24° NE 15:59:04 10° ESE daylight
22 Jan - 17:34:31 10° NW 17:40:43 53° WSW 17:46:52 10° S visible
23 Jan - 06:49:52 10° SSW 06:55:45 73° ESE 07:01:52 10° NNE daylight
23 Jan - 08:39:03 10° W 08:42:43 16° NW 08:46:28 10° NNW daylight
23 Jan - 15:57:49 10° N 16:03:36 35° ENE 16:09:21 10° ESE daylight
23 Jan - 17:44:12 10° NW 17:49:52 34° WSW 17:55:28 10° S visible
24 Jan - 05:17:06 10° SE 05:19:29 13° ESE 05:21:53 10° ENE visible
24 Jan - 06:59:05 10° SSW 07:05:01 74° WNW 07:11:10 10° NNE daylight
24 Jan - 08:51:05 10° WNW 08:52:27 11° NW 08:53:48 10° NNW daylight
24 Jan - 16:06:47 10° NNW 16:13:02 52° ENE 16:19:13 10° SE daylight
24 Jan - 17:54:16 10° WNW 17:58:56 22° WSW 18:03:35 10° SSW visible
25 Jan - 05:24:09 10° SSE 05:28:28 21° ESE 05:32:53 10° ENE visible
25 Jan - 07:08:38 10° SW 07:14:22 47° WNW 07:20:17 10° NNE daylight
25 Jan - 14:32:31 10° NNE 14:35:01 12° NE 14:37:31 10° ENE daylight
25 Jan - 16:15:56 10° NNW 16:22:23 78° ENE 16:28:44 10° SSE daylight
25 Jan - 18:05:11 10° WNW 18:07:56 13° WSW 18:10:41 10° SW visible
26 Jan - 05:32:16 10° S 05:37:32 34° ESE 05:42:56 10° NE visible
26 Jan - 07:18:33 10° WSW 07:23:48 31° WNW 07:29:14 10° N daylight
26 Jan - 14:40:24 10° N 14:44:43 18° NE 14:49:00 10° E daylight
26 Jan - 16:25:15 10° NNW 16:31:38 70° WSW 16:37:56 10° SSE daylight
27 Jan - 05:40:54 10° S 05:46:40 54° ESE 05:52:36 10° NE visible
27 Jan - 07:28:52 10° W 07:33:20 21° NW 07:37:56 10° N daylight
27 Jan - 14:48:58 10° N 14:54:19 27° NE 14:59:37 10° ESE daylight
27 Jan - 16:34:46 10° NW 16:40:49 45° WSW 16:46:48 10° S daylight
28 Jan - 05:49:55 10° SSW 05:55:51 84° ESE 06:02:02 10° NNE visible
28 Jan - 07:39:51 10° W 07:42:59 14° NW 07:46:11 10° NNW daylight
28 Jan - 14:57:49 10° N 15:03:48 40° ENE 15:09:44 10° SE daylight
28 Jan - 16:44:34 10° NW 16:49:56 29° WSW 16:55:15 10° SSW daylight
